Terminal Aerodrome Forecast
Issued by NWS Omaha/Valley, NE

Home | Current Version | Previous Version | Graphics & Text | Print | Product List | Glossary On
Versions: 1 2 3 4 5 6 7 8 9 10 11 12 13 14 15 16 17 18 19 20 21 22 23 24 25 26 27 28 29 30 31 32 33 34 35 36 37 38 39 40 41 42 43 44 45 46 47 48
000
FTUS43 KOAX 071720
TAFOFK
TAF
KOFK 071720Z 0718/0818 02012KT P6SM SCT050
     FM072100 06009KT P6SM FEW050 SCT250
     FM080000 12004KT P6SM SCT250
     FM080600 14004KT P6SM BKN200=

USA.gov is the U.S. government's official web portal to all federal, state and local government web resources and services.